Flag for China Weather past 2 weeks in Nanning, Guangxi, China

Now
75 °F

Light rain. Fog.


Feels Like: 74 °F
Forecast: 73 / 81 °F
Wind: 1 mph from East

Location: Nanning Airport

Current Time: Aug 4, 2015 at 7:55:29 AM

Latest Report: Aug 4, 2015 at 7:00 AM


Visibility: 3 mi

Pressure: 29.83 "Hg

Humidity: 94%

Dew point: 73 °F

Location of NanningLocation

Historic Weather in Nanning — Graph

°F

Nanning temperature yesterday

Maximum temperature yesterday: 79 °F (at 10:00 AM)
Minimum temperature yesterday: 75 °F (at 5:00 AM)
Average temperature yesterday: 77 °F

Past Weeks' High & Low Weather Summary

 TemperatureHumidityPressure
High97 °F (Jul 20, 5:00 PM)100% (Jul 24, 8:00 PM)29.89 "Hg (Jul 24, 8:00 PM)
Low75 °F (Jul 23, 1:00 PM)47% (Jul 20, 5:00 PM)29.56 "Hg (Jul 20, 3:00 PM)
Average79 °F89%29.72 "Hg
* Reported Jul 20 6:00 AM — Aug 4 6:00 AM, Nanning, Weather by CustomWeather, © 2015

Note: Actual official high and low records may vary slightly from our data, if they occured in-between our weather recording intervals... More about our weather records

Advertising

Nanning weather history for previous 24 hours

 ConditionsComfort  
Time TempWeatherWind HumidityBarometerVisibility
6:00 AM
Tue, Aug 4
75 °FLight rain. Fog.3 mph94%29.80 "Hg2 mi
5:00 AM75 °FFog.3 mph100%29.80 "Hg2 mi
4:00 AM75 °FLight rain. Fog.1 mph100%29.80 "Hg3 mi
3:00 AM75 °FLight rain. Fog.1 mph100%29.80 "Hg3 mi
2:00 AM75 °FClear.1 mph100%29.83 "Hg4 mi
12:00 AM75 °FPassing clouds.3 mph100%29.83 "Hg4 mi
11:00 PM
Mon, Aug 3
75 °FPassing clouds.1 mph100%29.83 "Hg4 mi
10:00 PM77 °FPassing clouds.1 mph94%29.80 "Hg4 mi
9:00 PM77 °FClear.1 mph94%29.80 "Hg5 mi
8:00 PM77 °FLight rain. Passing clouds.1 mph94%29.80 "HgN/A
7:00 PM77 °FLight rain. Scattered clouds.1 mph94%29.80 "HgN/A
6:00 PM79 °FLight rain. Scattered clouds.1 mph89%29.80 "HgN/A
5:00 PM79 °FLight rain. Scattered clouds.1 mph89%29.80 "HgN/A
4:00 PM79 °FLight rain. Scattered clouds.1 mph94%29.83 "HgN/A
3:00 PM79 °FSprinkles. Scattered clouds.1 mph89%29.83 "HgN/A
2:00 PM79 °FSprinkles. Scattered clouds.1 mph89%29.86 "HgN/A
1:00 PM77 °FLots of rain. Fog.3 mph94%29.89 "Hg1 mi
11:00 AM77 °FLight rain. Broken clouds.1 mph94%29.89 "HgN/A
10:00 AM79 °FLight rain. Scattered clouds.1 mph89%29.89 "HgN/A
9:00 AM77 °FLight rain. Passing clouds.3 mph89%29.86 "HgN/A
8:00 AM77 °FLight rain. Clear.1 mph89%29.86 "HgN/A
7:00 AM77 °FSunny.1 mph89%29.86 "Hg10 mi
Weather by CustomWeather, © 2015

See weather overviewHow to use our weather pages